Regional Weather Roundup
Issued by NWS Northern Indiana

Home | Current Version | Previous Version | Graphics & Text | Print | Product List | Glossary On
Versions: 1 2 3 4 5 6 7 8 9 10 11 12 13 14 15 16 17 18 19 20 21 22 23 24 25 26 27 28 29 30 31 32 33 34 35 36 37 38 39 40 41 42 43 44 45 46 47 48 49 50
000
ASUS43 KIWX 161100
RWRIWX

KIWX WEATHER ROUNDUP
NATIONAL WEATHER SERVICE NORTHERN INDIANA
700 AM EDT TUE SEP 16 2014

NOTE: "FAIR" INDICATES FEW OR NO CLOUDS BELOW 12,000 FEET WITH NO
SIGNIFICANT WEATHER AND/OR OBSTRUCTIONS TO VISIBILITY.

* THESE STATIONS ARE NOT UNDER NWS QUALITY CONTROL. THEY ALSO MAY NOT
  REPORT WEATHER SUCH AS PRECIPITATION OR FOG.

INZ001>027-161200-
NORTHERN INDIANA

CITY           SKY/WX    TMP DP  RH WIND       PRES   REMARKS
GARY*          PTCLDY    50  46  87 W5        30.19R
VALPARAISO     CLOUDY    53  51  93 CALM      30.19R
KNOX*          CLOUDY    50  49  94 CALM      30.18R
SOUTH BEND     CLEAR     47  43  86 CALM      30.19R FOG
ELKHART*       PTCLDY    48  48 100 CALM      30.18
GOSHEN         CLOUDY    51  49  92 N7        30.18R FOG
WARSAW*        FOG       45  45 100 NW3       30.17R VSB 1/4
ANGOLA*        MOCLDY    50  36  57 N6        30.16R
FORT WAYNE     MOCLDY    53  49  86 NE6       30.17R
PERU/GRISSOM   MOCLDY    52  52 100 N6        30.17R

$$
INZ028>050-161200-
CENTRAL INDIANA

CITY           SKY/WX    TMP DP  RH WIND       PRES   REMARKS
LAFAYETTE      MOCLDY    50  50 100 CALM      30.18R FOG
KOKOMO*        CLOUDY    52  48  87 NE8       30.18R
MUNCIE*        CLOUDY    52  50  93 N9        30.17R FOG
INDIANAPOLIS   CLOUDY    54  51  90 N7        30.16R

$$
MIZ043>046-050>051-056>058-064>065-071>073-077>080-161200-
SOUTHWEST LOWER MICHIGAN

CITY           SKY/WX    TMP DP  RH WIND       PRES   REMARKS
BATTLE CREEK   FOG       47  46  97 N3        30.18R VSB 1/2
BENTON HARBOR  FOG       42  42 100 CALM      30.17S VSB 1/2
COLDWATER*     CLOUDY    51  50  97 N5        30.17R
HILLSDALE*     CLOUDY    51  51 100 NW5       30.16R
HOLLAND        CLEAR     43  41  93 CALM      30.17S
GRAND RAPIDS   FOG       44  44 100 S3        30.17S VSB 1/4
KALAMAZOO      CLEAR     43  42  97 CALM      30.18R
STURGIS*       PTCLDY    48  46  93 N5        30.16R FOG
THREE RIVERS*  FOG       47  47  97 CALM      30.18R VSB 1

$$
OHZ001>008-015>018-024>025-161200-
NORTHWEST OHIO

CITY           SKY/WX    TMP DP  RH WIND       PRES   REMARKS
DEFIANCE       CLEAR     51  48  89 NE5       30.15S
FINDLAY        CLOUDY    54  51  90 N6        30.14R
TOLEDO EXPRESS PTCLDY    51  50  96 NW8       30.15R
TOLEDO METCALF PTCLDY    53  49  86 NW6       30.15R
LIMA           CLOUDY    54  51  90 N8        30.15R FOG

$$
&&


USA.gov is the U.S. government's official web portal to all federal, state and local government web resources and services.